When you browse on this site, cookies collect data to enhance your experience and personalize the content and advertising you see.
Visit our Privacy Policy to learn more. By continuing to use the site, you agree to this use of cookies and data.
  • în România
  • Lista ţărilor
  • Pe 7 zile
  • Temperatura apei
  • Hartă satelitară
  • Meteo pe hartă
  • Widget-uri
  • user-avatar
    Intrare

    Meteo pe oră la Arontorp

    Astăzi, 25 Aprilie, Joi

    Timp Temperatura Precipitaţii Vânt Presiune Umiditate
    00:00 +9°C° 0 mm 5 m/s 757 mmHg 67%
    01:00 +8°C° 0 mm 4 m/s 757 mmHg 72%
    02:00 +8°C° 0 mm 4 m/s 757 mmHg 75%
    03:00 +8°C° 0 mm 4 m/s 757 mmHg 78%
    04:00 +7°C° 0 mm 4 m/s 757 mmHg 82%
    05:00 +8°C° 0 mm 4 m/s 757 mmHg 80%
    06:00 +10°C° 0 mm 4 m/s 757 mmHg 78%
    07:00 +10°C° 0 mm 4 m/s 757 mmHg 76%
    08:00 +11°C° 0 mm 4 m/s 757 mmHg 73%
    09:00 +12°C° 0 mm 4 m/s 757 mmHg 70%
    10:00 +14°C° 0 mm 4 m/s 757 mmHg 67%
    11:00 +14°C° 0.1 mm 4 m/s 757 mmHg 67%
    12:00 +14°C° 0.1 mm 4 m/s 757 mmHg 66%
    13:00 +15°C° 0.1 mm 4 m/s 757 mmHg 65%
    14:00 +16°C° 0 mm 3 m/s 757 mmHg 66%
    15:00 +16°C° 0 mm 3 m/s 757 mmHg 67%
    16:00 +14°C° 0 mm 3 m/s 757 mmHg 69%
    17:00 +13°C° 0 mm 3 m/s 757 mmHg 74%
    18:00 +13°C° 0 mm 2 m/s 757 mmHg 79%
    19:00 +12°C° 0 mm 2 m/s 757 mmHg 84%
    20:00 +10°C° 0 mm 2 m/s 757 mmHg 88%
    21:00 +9°C° 0 mm 2 m/s 757 mmHg 92%
    22:00 +8°C° 0 mm 2 m/s 757 mmHg 96%
    23:00 +8°C° 0 mm 2 m/s 757 mmHg 96%

    Mâine, 26 Aprilie, Vineri

    Timp Temperatura Precipitaţii Vânt Presiune Umiditate
    00:00 +8°C° 0 mm 2 m/s 757 mmHg 96%
    01:00 +8°C° 0 mm 2 m/s 757 mmHg 97%
    02:00 +8°C° 0 mm 2 m/s 757 mmHg 97%
    03:00 +7°C° 0 mm 3 m/s 757 mmHg 97%
    04:00 +7°C° 0 mm 3 m/s 756 mmHg 97%
    05:00 +8°C° 0 mm 3 m/s 756 mmHg 93%
    06:00 +10°C° 0 mm 3 m/s 756 mmHg 88%
    07:00 +11°C° 0 mm 3 m/s 756 mmHg 84%
    08:00 +13°C° 0 mm 3 m/s 756 mmHg 78%
    09:00 +14°C° 0 mm 3 m/s 755 mmHg 71%
    10:00 +17°C° 0 mm 3 m/s 755 mmHg 65%
    11:00 +18°C° 0 mm 3 m/s 755 mmHg 63%
    12:00 +18°C° 0 mm 3 m/s 755 mmHg 62%
    13:00 +19°C° 0 mm 3 m/s 755 mmHg 60%
    14:00 +18°C° 0 mm 3 m/s 754 mmHg 63%
    15:00 +17°C° 0 mm 3 m/s 754 mmHg 66%
    16:00 +16°C° 0 mm 3 m/s 754 mmHg 69%
    17:00 +14°C° 0 mm 3 m/s 754 mmHg 75%
    18:00 +13°C° 0 mm 3 m/s 753 mmHg 81%
    19:00 +11°C° 0 mm 3 m/s 753 mmHg 87%
    20:00 +11°C° 0 mm 3 m/s 753 mmHg 90%
    21:00 +10°C° 0 mm 3 m/s 753 mmHg 94%
    22:00 +9°C° 0 mm 3 m/s 753 mmHg 97%
    23:00 +9°C° 0 mm 3 m/s 753 mmHg 97%

    Poimâine, 27 Aprilie, Sâmbătă

    Timp Temperatura Precipitaţii Vânt Presiune Umiditate
    00:00 +10°C° 0 mm 3 m/s 752 mmHg 96%
    01:00 +10°C° 0 mm 3 m/s 752 mmHg 96%
    02:00 +10°C° 0 mm 3 m/s 752 mmHg 95%
    03:00 +10°C° 0 mm 4 m/s 751 mmHg 94%
    04:00 +10°C° 0 mm 4 m/s 751 mmHg 93%
    05:00 +11°C° 0.2 mm 4 m/s 751 mmHg 90%
    06:00 +11°C° 0.2 mm 4 m/s 751 mmHg 88%
    07:00 +11°C° 0.2 mm 4 m/s 751 mmHg 85%
    08:00 +12°C° 0.3 mm 4 m/s 751 mmHg 83%
    09:00 +13°C° 0.3 mm 4 m/s 751 mmHg 81%
    10:00 +14°C° 0.3 mm 4 m/s 751 mmHg 78%
    11:00 +14°C° 0.8 mm 4 m/s 751 mmHg 82%
    12:00 +13°C° 0.8 mm 3 m/s 751 mmHg 85%
    13:00 +13°C° 0.8 mm 3 m/s 752 mmHg 88%
    14:00 +13°C° 0.6 mm 3 m/s 752 mmHg 88%
    15:00 +13°C° 0.6 mm 3 m/s 752 mmHg 88%
    16:00 +13°C° 0.6 mm 3 m/s 752 mmHg 88%
    17:00 +12°C° 0.7 mm 3 m/s 752 mmHg 90%
    18:00 +12°C° 0.7 mm 3 m/s 753 mmHg 91%
    19:00 +11°C° 0.7 mm 3 m/s 753 mmHg 93%
    20:00 +10°C° 0.9 mm 3 m/s 753 mmHg 93%
    21:00 +10°C° 0.9 mm 3 m/s 753 mmHg 93%
    22:00 +10°C° 0.9 mm 4 m/s 754 mmHg 94%
    23:00 +8°C° 0.8 mm 4 m/s 754 mmHg 94%

    28 Aprilie, Duminică

    Timp Temperatura Precipitaţii Vânt Presiune Umiditate
    00:00 +8°C° 0.8 mm 4 m/s 754 mmHg 94%
    01:00 +7°C° 0.8 mm 4 m/s 754 mmHg 94%
    02:00 +7°C° 0.6 mm 4 m/s 754 mmHg 95%
    03:00 +7°C° 0.6 mm 4 m/s 754 mmHg 95%
    04:00 +7°C° 0.6 mm 5 m/s 755 mmHg 95%
    05:00 +8°C° 0.4 mm 5 m/s 755 mmHg 95%
    06:00 +8°C° 0.4 mm 5 m/s 756 mmHg 95%
    07:00 +8°C° 0.4 mm 5 m/s 756 mmHg 95%
    08:00 +8°C° 0.2 mm 6 m/s 757 mmHg 93%
    09:00 +7°C° 0.2 mm 6 m/s 757 mmHg 92%
    10:00 +6°C° 0.2 mm 7 m/s 758 mmHg 90%
    11:00 +6°C° 0.2 mm 7 m/s 758 mmHg 89%
    12:00 +6°C° 0.2 mm 7 m/s 759 mmHg 88%
    13:00 +6°C° 0.2 mm 7 m/s 759 mmHg 86%
    14:00 +6°C° 0.2 mm 7 m/s 760 mmHg 82%
    15:00 +6°C° 0.2 mm 7 m/s 760 mmHg 79%
    16:00 +6°C° 0.2 mm 7 m/s 760 mmHg 75%
    17:00 +6°C° 0 mm 7 m/s 761 mmHg 72%
    18:00 +5°C° 0 mm 7 m/s 761 mmHg 68%
    19:00 +5°C° 0 mm 8 m/s 761 mmHg 65%
    20:00 +5°C° 0 mm 8 m/s 762 mmHg 65%
    21:00 +4°C° 0 mm 7 m/s 762 mmHg 64%
    22:00 +4°C° 0 mm 7 m/s 763 mmHg 64%
    23:00 +4°C° 0 mm 7 m/s 763 mmHg 65%

    29 Aprilie, Luni

    Timp Temperatura Precipitaţii Vânt Presiune Umiditate
    00:00 +4°C° 0 mm 7 m/s 763 mmHg 66%
    01:00 +4°C° 0 mm 6 m/s 764 mmHg 67%
    02:00 +3°C° 0 mm 6 m/s 764 mmHg 69%
    03:00 +3°C° 0 mm 6 m/s 764 mmHg 71%
    04:00 +3°C° 0 mm 6 m/s 764 mmHg 73%
    05:00 +3°C° 0 mm 6 m/s 765 mmHg 70%
    06:00 +4°C° 0 mm 6 m/s 765 mmHg 68%
    07:00 +5°C° 0 mm 6 m/s 765 mmHg 65%
    08:00 +5°C° 0 mm 6 m/s 765 mmHg 61%
    09:00 +7°C° 0 mm 6 m/s 766 mmHg 57%
    10:00 +8°C° 0 mm 6 m/s 766 mmHg 52%
    11:00 +8°C° 0 mm 6 m/s 766 mmHg 50%
    12:00 +9°C° 0 mm 6 m/s 766 mmHg 48%
    13:00 +9°C° 0 mm 6 m/s 766 mmHg 46%
    14:00 +9°C° 0 mm 6 m/s 766 mmHg 46%
    15:00 +9°C° 0 mm 6 m/s 765 mmHg 47%
    16:00 +8°C° 0 mm 6 m/s 765 mmHg 47%
    17:00 +7°C° 0 mm 5 m/s 765 mmHg 51%
    18:00 +6°C° 0 mm 5 m/s 766 mmHg 55%
    19:00 +5°C° 0 mm 5 m/s 766 mmHg 59%
    20:00 +3°C° 0 mm 5 m/s 766 mmHg 62%
    21:00 +3°C° 0 mm 5 m/s 766 mmHg 66%
    22:00 +2°C° 0 mm 5 m/s 766 mmHg 69%
    23:00 +2°C° 0 mm 5 m/s 766 mmHg 71%

    30 Aprilie, Marţi

    Timp Temperatura Precipitaţii Vânt Presiune Umiditate
    00:00 +1°C° 0 mm 4 m/s 766 mmHg 74%
    01:00 +1°C° 0 mm 4 m/s 766 mmHg 76%
    02:00 +1°C° 0 mm 4 m/s 766 mmHg 78%
    03:00 +1°C° 0 mm 4 m/s 766 mmHg 79%
    04:00 +1°C° 0 mm 4 m/s 766 mmHg 80%
    05:00 +3°C° 0 mm 4 m/s 766 mmHg 76%
    06:00 +3°C° 0 mm 5 m/s 766 mmHg 71%
    07:00 +5°C° 0 mm 5 m/s 766 mmHg 66%
    08:00 +6°C° 0 mm 5 m/s 766 mmHg 61%
    09:00 +8°C° 0 mm 5 m/s 766 mmHg 56%
    10:00 +9°C° 0 mm 5 m/s 766 mmHg 51%
    11:00 +9°C° 0 mm 5 m/s 766 mmHg 48%
    12:00 +11°C° 0 mm 4 m/s 766 mmHg 45%
    13:00 +11°C° 0 mm 4 m/s 765 mmHg 42%
    14:00 +11°C° 0 mm 4 m/s 765 mmHg 42%
    15:00 +11°C° 0 mm 4 m/s 765 mmHg 42%
    16:00 +11°C° 0 mm 3 m/s 765 mmHg 42%
    17:00 +9°C° 0 mm 3 m/s 764 mmHg 48%
    18:00 +8°C° 0 mm 2 m/s 764 mmHg 54%
    19:00 +7°C° 0 mm 2 m/s 764 mmHg 60%
    20:00 +6°C° 0 mm 2 m/s 764 mmHg 64%
    21:00 +6°C° 0 mm 1 m/s 764 mmHg 68%
    22:00 +5°C° 0 mm 1 m/s 764 mmHg 71%
    23:00 +4°C° 0 mm 1 m/s 764 mmHg 71%
    Arată mai mult